Location: Santa Cristina
(46.5667°N, 11.7167°E)
Time: 06:36:40
(UTC+00:00)

USA 306 - Pass Details

Date: 21 April 2021
Orbit: 565 x 575 km, 54.0° (Epoch: 11 May)

Event Time Altitude Azimuth Distance (km) Brightness Sun altitude
Rises 02:53:59 0° 300° (WNW) 2,783 6.2 -13.4°
Reaches altitude 10° 02:56:20 10° 307° (NW) 1,885 5.3 -13.0°
Maximum altitude 03:00:25 42° 19° (NNE) 827 4.1 -12.4°
Drops below altitude 10° 03:04:31 10° 91° (E) 1,884 6.5 -11.8°
Sets 03:06:52 0° 99° (E) 2,781 7.3 -11.5°
